x

Western Hawaii - 205 Nm Sw Of Honolulu, Hi (51003) Wave Buoy

3:50pm - Sun 5th Jul 2015 All times are HST. -10 hours from GMT.

  • Sig Wave height 4.9ft
  • Peak Period 16s
  • Average Period 7s
  • Wind
    11mph, 13mph gusts
  • Sea Temp 82°f
  • Air Temp 81°f
  • Sea Pressure 1013.5mb
  • Western  Hawaii - 205 Nm Sw Of Honolulu, Hi
  • Western  Hawaii - 205 Nm Sw Of Honolulu, Hi

More Historic Weather Station data

Upgrade to MSW Pro to gain access to the past 30 days of data for over 8000 Wavebouys and Weather Stations around the globe.

Join Pro

Comparision Forecast

View Surf forecast
   
Sun 07/05 3:50pm 5ft 16s 7s 11 13 mph 1013.5mb 82f 81f
2:50pm 5ft 11s 7s 11 13 mph 1013.9mb 82f 81f
1:50pm 5ft 11s 7s 11 16 mph 1014.1mb 82f 81f
12:50pm 5.5ft 12s 7s 11 13 mph 1014.3mb 82f 81f
11:50am 5ft 12s 7s 11 13 mph 1014.6mb 82f 81f
10:50am 5ft 12s 7s 11 13 mph 1014.7mb 82f 81f
9:50am 5.5ft 16s 7s 11 13 mph 1014.7mb 82f 81f
8:50am 5.5ft 8s 7s 11 13 mph 1014.4mb 82f 81f
7:50am 5.5ft 12s 8s 11 13 mph 1014.5mb 82f 80f
6:50am 5ft 16s 7s 9 11 mph 1014.1mb 82f 80f
5:50am 6ft 12s 7s 9 13 mph 1013.5mb 82f 80f
4:50am 5.5ft 9s 7s 9 11 mph 1013.2mb 82f 80f
3:50am 6ft 17s 7s 9 11 mph 1013mb 82f 80f
2:50am 5ft 9s 7s 9 11 mph 1013.4mb 82f 80f
1:50am 5ft 13s 7s 7 11 mph 1013.9mb 82f 80f
12:50am 5.5ft 8s 7s 9 11 mph 1014.5mb 82f 80f
Sat 07/04 11:50pm 5.5ft 13s 7s 7 9 mph 1014.9mb 82f 81f
10:50pm 5.5ft 8s 7s 9 11 mph 1015.3mb 82f 81f
9:50pm 6ft 9s 8s 9 11 mph 1015.1mb 82f 81f
8:50pm 6.5ft 13s 8s 9 11 mph 1014.8mb 82f 81f
7:50pm 5ft 9s 7s 9 11 mph 1014.1mb 82f 81f
6:50pm 5.5ft 12s 7s 11 13 mph 1013.4mb 83f 81f
5:50pm 5.5ft 9s 7s 11 13 mph 1012.8mb 83f 81f
4:50pm 6ft 13s 7s 9 11 mph 1012.9mb 83f 81f
3:50pm 6.5ft 9s 7s 9 11 mph 1013mb 83f 81f
2:50pm 6ft 13s 7s 7 9 mph 1013.2mb 83f 81f
1:50pm 6ft 9s 7s 7
mph
1013.3mb 83f 81f
12:50pm 6ft 9s 7s 7 9 mph 1013.4mb 82f 81f
11:50am 6ft 8s 7s 7 11 mph 1013.6mb 82f 81f
10:50am 5.5ft 9s 7s 7 11 mph 1013.7mb 82f 81f
9:50am 6ft 9s 7s 7 9 mph 1013.6mb 82f 81f
8:50am 5.5ft 13s 7s 7 9 mph 1013.4mb 82f 80f
7:50am 6ft 9s 7s 7 9 mph 1013.3mb 81f 80f
6:50am 5.5ft 12s 7s 9 11 mph 1012.9mb 81f 80f
5:50am 6ft 8s 7s 9 11 mph 1012.4mb 81f 80f
4:50am 6ft 8s 7s 11 13 mph 1012.1mb 81f 80f
3:50am 6ft 14s 7s 11 13 mph 1012mb 82f 80f
2:50am 6ft 13s 7s 9 11 mph 1012.3mb 82f 80f
1:50am 5.5ft 9s 7s 9 11 mph 1012.6mb 82f 80f
12:50am 6ft 9s 7s 9 11 mph 1013.2mb 82f 81f
Fri 07/03 11:50pm 6ft 14s 7s 9 11 mph 1013.5mb 82f 81f
10:50pm 6ft 14s 8s 11 13 mph 1013.6mb 82f 81f
9:50pm 5.5ft 14s 7s 7 9 mph 1013.3mb 82f 81f
8:50pm 5ft 14s 7s 9 11 mph 1013mb 82f 81f
7:50pm 5.5ft 14s 7s 7 9 mph 1012.5mb 82f 81f
6:50pm 6ft 9s 7s 9 11 mph 1011.8mb 82f 81f
5:50pm 6ft 15s 7s 9 11 mph 1011.5mb 82f 81f
4:50pm 6ft 14s 7s 9 11 mph 1011.4mb 82f 81f
3:50pm 5ft 9s 7s 9 11 mph 1011.7mb 82f 81f
2:50pm 6ft 14s 7s 9 11 mph 1011.9mb 82f 81f
1:50pm 5ft 8s 7s 9 11 mph 1012.1mb 82f 81f
12:50pm 6ft 15s 7s 9 11 mph 1012.5mb 82f 81f
11:50am 5ft 10s 7s 9 11 mph 1012.8mb 82f 81f
10:50am 5.5ft 9s 7s 9 13 mph 1012.8mb 82f 81f
9:50am 5.5ft 9s 7s 9 11 mph 1012.6mb 82f 81f
8:50am 6ft 9s 7s 11 13 mph 1012.4mb 81f 81f
7:50am 5.5ft 15s 7s 11 16 mph 1012.3mb 81f 81f
6:50am 5ft 9s 7s 13 16 mph 1011.8mb 81f 80f
5:50am 5.5ft 9s 7s 11 16 mph 1011.4mb 81f 80f
4:50am 5ft 8s 7s 13 16 mph 1011.2mb 81f 80f
3:50am 5ft 9s 7s 11 13 mph 1011.4mb 81f 80f
2:50am 6ft 9s 8s 11 16 mph 1011.8mb 81f 80f
1:50am 5ft 9s 7s 11 13 mph 1012.3mb 81f 81f
12:50am 6ft 9s 8s 11 13 mph 1012.9mb 82f 81f
Thu 07/02 11:50pm 5ft 8s 7s 11 13 mph 1013.3mb 82f 81f
10:50pm 5ft 10s 7s 11 13 mph 1013.4mb 82f 81f
9:50pm 5.5ft 9s 8s 9 13 mph 1013mb 82f 81f
8:50pm 5.5ft 12s 8s 7
mph
1012.5mb 82f 81f
7:50pm 5ft 9s 8s 7 9 mph 1012mb 82f 81f
6:50pm 5ft 9s 8s 7 9 mph 1011.3mb 82f 81f
5:50pm 4.5ft 9s 7s 9 11 mph 1010.9mb 82f 81f
4:50pm 4.5ft 9s 7s 9 11 mph 1010.8mb 82f 81f
3:50pm 5ft 12s 7s 9 11 mph 1011.2mb 82f 81f
2:50pm 5ft 13s 7s 9 11 mph 1011.6mb 82f 81f
1:50pm 4.5ft 13s 8s 9 11 mph 1012.2mb 82f 81f
12:50pm 4.5ft 8s 7s 9
mph
1012.6mb 82f 80f
11:50am 5ft 13s 8s 9 11 mph 1012.9mb 82f 81f
10:50am 5ft 12s 8s 7 9 mph 1013.1mb 82f 81f
9:50am 5ft 9s 8s 7 9 mph 1013mb 82f 80f
8:50am 5ft 13s 8s 7 9 mph 1013mb 82f 80f
7:50am 4.5ft 11s 8s 2 7 mph 1012.4mb 81f 80f
6:50am 5ft 14s 8s 4 7 mph 1012mb 81f 80f
5:50am 4.5ft 13s 8s 4 7 mph 1011.6mb 81f 80f
4:50am 5ft 8s 7s 4 7 mph 1011.3mb 81f 80f
3:50am 5ft 14s 8s 7 9 mph 1011.3mb 81f 80f